If you wish to contribute or participate in the discussions about articles you are invited to join SKYbrary as a registered user

 Actions

San Louis Obispo

From SKYbrary Wiki

KSBP
Airport
ICAO: KSBP
Summary
Name San Louis Obispo
Region North America
Territory United States US.gif
Location San Luis Obispo, California
Serving San Luis Obispo County
Coordinates 35° 14' 15.62" N, 120° 38' 27.85" W
Runways
Designator Length Width Surface ROPS
7/25 994 m3,261.155 ft <br /> 30 m98.425 ft <br /> ASP yes/yes
11/29 1615 m5,298.556 ft <br /> 46 m150.919 ft <br /> ASP yes/yes


METAR
Observation KSBP 230656Z AUTO 25004KT 10SM CLR 15/12 A2992 RMK AO2 SLP131 T01500117
Station San Luis Obispo, San Luis Obispo County-Mc Chesney Field
Date/Time 23 June 2021 06:56:00
Wind direction 250°
Wind speed 04 kts
Lowest cloud amount n/a
Temperature 15°C
Dew point 11.7°C
Humidity 80%
QNH hPa
Weather condition n/a

EMAS
Rwy(s) 11, 29

San Luis Obispo County Regional Airport

ICAO: KSBP IATA: SBP

Description

San Luis Obispo County Regional Airport (IATA: SBP), also known as McChesney Field, is an airport located in San Luis Obispo, California serving San Luis Obispo County.

Climatology

Dry-summer subtropical ”Mediterranean" climate (Köppen climate classification Csb) - characterized by warm, dry summers and mild winters.

Maps

Terrain

Loading map...

Airport Layout

Loading map...


Accidents & Serious Incidents at or in vicinity of KSBP

None on SKYbrary